Year,Month,Day,Hour,Minute,Value (Times are PST for temperature in C)
2017,05,30,00,00,15.80
2017,05,30,00,01,15.80
2017,05,30,00,02,15.80
2017,05,30,00,03,15.70
2017,05,30,00,04,15.70
2017,05,30,00,05,15.70
2017,05,30,00,06,15.70
2017,05,30,00,07,15.70
2017,05,30,00,08,15.60
2017,05,30,00,09,15.60
2017,05,30,00,10,15.60
2017,05,30,00,11,15.60
2017,05,30,00,12,15.50
2017,05,30,00,13,15.50
2017,05,30,00,14,15.50
2017,05,30,00,15,15.40
2017,05,30,00,16,15.40
2017,05,30,00,17,15.40
2017,05,30,00,18,15.40
2017,05,30,00,19,15.30
2017,05,30,00,20,15.30
2017,05,30,00,21,15.30
2017,05,30,00,22,15.30
2017,05,30,00,23,15.30
2017,05,30,00,24,15.30
2017,05,30,00,25,15.20
2017,05,30,00,26,15.20
2017,05,30,00,27,15.20
2017,05,30,00,28,15.20
2017,05,30,00,29,15.20
2017,05,30,00,30,15.20
2017,05,30,00,31,15.10
2017,05,30,00,32,15.10
2017,05,30,00,33,15.10
2017,05,30,00,34,15.10
2017,05,30,00,35,15.10
2017,05,30,00,36,15.00
2017,05,30,00,37,15.00
2017,05,30,00,38,14.90
2017,05,30,00,39,14.90
2017,05,30,00,40,14.90
2017,05,30,00,41,14.80
2017,05,30,00,42,14.80
2017,05,30,00,43,14.80
2017,05,30,00,44,14.80
2017,05,30,00,45,14.80
2017,05,30,00,46,14.80
2017,05,30,00,47,14.80
2017,05,30,00,48,14.70
2017,05,30,00,49,14.70
2017,05,30,00,50,14.70
2017,05,30,00,51,14.70
2017,05,30,00,52,14.70
2017,05,30,00,53,14.60
2017,05,30,00,54,14.60
2017,05,30,00,55,14.60
2017,05,30,00,56,14.60
2017,05,30,00,57,14.60
2017,05,30,00,58,14.50
2017,05,30,00,59,14.50
2017,05,30,01,00,14.50
2017,05,30,01,01,14.40
2017,05,30,01,02,14.40
2017,05,30,01,03,14.40
2017,05,30,01,04,14.40
2017,05,30,01,05,14.40
2017,05,30,01,06,14.40
2017,05,30,01,07,14.40
2017,05,30,01,08,14.40
2017,05,30,01,09,14.30
2017,05,30,01,10,14.30
2017,05,30,01,11,14.30
2017,05,30,01,12,14.30
2017,05,30,01,13,14.30
2017,05,30,01,14,14.30
2017,05,30,01,15,14.30
2017,05,30,01,16,14.20
2017,05,30,01,17,14.20
2017,05,30,01,18,14.20
2017,05,30,01,19,14.20
2017,05,30,01,20,14.20
2017,05,30,01,21,14.10
2017,05,30,01,22,14.10
2017,05,30,01,23,14.10
2017,05,30,01,24,14.10
2017,05,30,01,25,14.00
2017,05,30,01,26,14.00
2017,05,30,01,27,14.00
2017,05,30,01,28,13.90
2017,05,30,01,29,13.90
2017,05,30,01,30,13.90
2017,05,30,01,31,13.90
2017,05,30,01,32,13.90
2017,05,30,01,33,13.90
2017,05,30,01,34,13.80
2017,05,30,01,35,13.80
2017,05,30,01,36,13.80
2017,05,30,01,37,13.80
2017,05,30,01,38,13.80
2017,05,30,01,39,13.70
2017,05,30,01,40,13.70
2017,05,30,01,41,13.70
2017,05,30,01,42,13.70
2017,05,30,01,43,13.70
2017,05,30,01,44,13.60
2017,05,30,01,45,13.60
2017,05,30,01,46,13.60
2017,05,30,01,47,13.60
2017,05,30,01,48,13.50
2017,05,30,01,49,13.50
2017,05,30,01,50,13.50
2017,05,30,01,51,13.40
2017,05,30,01,52,13.40
2017,05,30,01,53,13.40
2017,05,30,01,54,13.40
2017,05,30,01,55,13.40
2017,05,30,01,56,13.40
2017,05,30,01,57,13.30
2017,05,30,01,58,13.30
2017,05,30,01,59,13.30
2017,05,30,02,00,13.30
2017,05,30,02,01,13.30
2017,05,30,02,02,13.30
2017,05,30,02,03,13.30
2017,05,30,02,04,13.30
2017,05,30,02,05,13.30
2017,05,30,02,06,13.30
2017,05,30,02,07,13.30
2017,05,30,02,08,13.30
2017,05,30,02,09,13.30
2017,05,30,02,10,13.30
2017,05,30,02,11,13.30
2017,05,30,02,12,13.30
2017,05,30,02,13,13.20
2017,05,30,02,14,13.20
2017,05,30,02,15,13.20
2017,05,30,02,16,13.20
2017,05,30,02,17,13.20
2017,05,30,02,18,13.20
2017,05,30,02,19,13.20
2017,05,30,02,20,13.20
2017,05,30,02,21,13.20
2017,05,30,02,22,13.10
2017,05,30,02,23,13.10
2017,05,30,02,24,13.10
2017,05,30,02,25,13.10
2017,05,30,02,26,13.10
2017,05,30,02,27,13.10
2017,05,30,02,28,13.10
2017,05,30,02,29,13.10
2017,05,30,02,30,13.00
2017,05,30,02,31,13.00
2017,05,30,02,32,13.00
2017,05,30,02,33,13.00
2017,05,30,02,34,13.00
2017,05,30,02,35,13.00
2017,05,30,02,36,13.00
2017,05,30,02,37,13.00
2017,05,30,02,38,12.90
2017,05,30,02,39,12.90
2017,05,30,02,40,12.90
2017,05,30,02,41,12.90
2017,05,30,02,42,12.90
2017,05,30,02,43,12.90
2017,05,30,02,44,12.90
2017,05,30,02,45,12.90
2017,05,30,02,46,12.90
2017,05,30,02,47,12.90
2017,05,30,02,48,12.90
2017,05,30,02,49,12.80
2017,05,30,02,50,12.80
2017,05,30,02,51,12.80
2017,05,30,02,52,12.80
2017,05,30,02,53,12.80
2017,05,30,02,54,12.80
2017,05,30,02,55,12.80
2017,05,30,02,56,12.70
2017,05,30,02,57,12.70
2017,05,30,02,58,12.70
2017,05,30,02,59,12.70
2017,05,30,03,00,12.60
2017,05,30,03,01,12.60
2017,05,30,03,02,12.60
2017,05,30,03,03,12.60
2017,05,30,03,04,12.60
2017,05,30,03,05,12.60
2017,05,30,03,06,12.60
2017,05,30,03,07,12.60
2017,05,30,03,08,12.50
2017,05,30,03,09,12.50
2017,05,30,03,10,12.50
2017,05,30,03,11,12.50
2017,05,30,03,12,12.50
2017,05,30,03,13,12.40
2017,05,30,03,14,12.50
2017,05,30,03,15,12.40
2017,05,30,03,16,12.40
2017,05,30,03,17,12.40
2017,05,30,03,18,12.40
2017,05,30,03,19,12.40
2017,05,30,03,20,12.40
2017,05,30,03,21,12.40
2017,05,30,03,22,12.40
2017,05,30,03,23,12.30
2017,05,30,03,24,12.30
2017,05,30,03,25,12.30
2017,05,30,03,26,12.30
2017,05,30,03,27,12.30
2017,05,30,03,28,12.30
2017,05,30,03,29,12.30
2017,05,30,03,30,12.30
2017,05,30,03,31,12.20
2017,05,30,03,32,12.20
2017,05,30,03,33,12.20
2017,05,30,03,34,12.20
2017,05,30,03,35,12.20
2017,05,30,03,36,12.10
2017,05,30,03,37,12.10
2017,05,30,03,38,12.10
2017,05,30,03,39,12.10
2017,05,30,03,40,12.10
2017,05,30,03,41,12.00
2017,05,30,03,42,12.00
2017,05,30,03,43,12.00
2017,05,30,03,44,12.00
2017,05,30,03,45,11.90
2017,05,30,03,46,11.90
2017,05,30,03,47,11.90
2017,05,30,03,48,11.90
2017,05,30,03,49,11.90
2017,05,30,03,50,11.90
2017,05,30,03,51,11.90
2017,05,30,03,52,11.90
2017,05,30,03,53,11.80
2017,05,30,03,54,11.80
2017,05,30,03,55,11.80
2017,05,30,03,56,11.80
2017,05,30,03,57,11.80
2017,05,30,03,58,11.80
2017,05,30,03,59,11.80
2017,05,30,04,00,11.80
2017,05,30,04,01,11.80
2017,05,30,04,02,11.80
2017,05,30,04,03,11.80
2017,05,30,04,04,11.80
2017,05,30,04,05,11.80
2017,05,30,04,06,11.80
2017,05,30,04,07,11.80
2017,05,30,04,08,11.80
2017,05,30,04,09,11.70
2017,05,30,04,10,11.80
2017,05,30,04,11,11.80
2017,05,30,04,12,11.80
2017,05,30,04,13,11.80
2017,05,30,04,14,11.80
2017,05,30,04,15,11.70
2017,05,30,04,16,11.70
2017,05,30,04,17,11.70
2017,05,30,04,18,11.60
2017,05,30,04,19,11.60
2017,05,30,04,20,11.60
2017,05,30,04,21,11.60
2017,05,30,04,22,11.60
2017,05,30,04,23,11.60
2017,05,30,04,24,11.60
2017,05,30,04,25,11.60
2017,05,30,04,26,11.60
2017,05,30,04,27,11.60
2017,05,30,04,28,11.60
2017,05,30,04,29,11.60
2017,05,30,04,30,11.50
2017,05,30,04,31,11.50
2017,05,30,04,32,11.50
2017,05,30,04,33,11.50
2017,05,30,04,34,11.60
2017,05,30,04,35,11.60
2017,05,30,04,36,11.60
2017,05,30,04,37,11.60
2017,05,30,04,38,11.60
2017,05,30,04,39,11.60
2017,05,30,04,40,11.60
2017,05,30,04,41,11.60
2017,05,30,04,42,11.60
2017,05,30,04,43,11.60
2017,05,30,04,44,11.60
2017,05,30,04,45,11.60
2017,05,30,04,46,11.60
2017,05,30,04,47,11.60
2017,05,30,04,48,11.60
2017,05,30,04,49,11.60
2017,05,30,04,50,11.60
2017,05,30,04,51,11.60
2017,05,30,04,52,11.60
2017,05,30,04,53,11.60
2017,05,30,04,54,11.60
2017,05,30,04,55,11.60
2017,05,30,04,56,11.60
2017,05,30,04,57,11.60
2017,05,30,04,58,11.60
2017,05,30,04,59,11.60
2017,05,30,05,00,11.60
2017,05,30,05,01,11.60
2017,05,30,05,02,11.60
2017,05,30,05,03,11.60
2017,05,30,05,04,11.60
2017,05,30,05,05,11.60
2017,05,30,05,06,11.60
2017,05,30,05,07,11.60
2017,05,30,05,08,11.50
2017,05,30,05,09,11.50
2017,05,30,05,10,11.50
2017,05,30,05,11,11.50
2017,05,30,05,12,11.50
2017,05,30,05,13,11.50
2017,05,30,05,14,11.50
2017,05,30,05,15,11.50
2017,05,30,05,16,11.50
2017,05,30,05,17,11.50
2017,05,30,05,18,11.50
2017,05,30,05,19,11.50
2017,05,30,05,20,11.50
2017,05,30,05,21,11.50
2017,05,30,05,22,11.50
2017,05,30,05,23,11.50
2017,05,30,05,24,11.50
2017,05,30,05,25,11.50
2017,05,30,05,26,11.50
2017,05,30,05,27,11.50
2017,05,30,05,28,11.50
2017,05,30,05,29,11.40
2017,05,30,05,30,11.40
2017,05,30,05,31,11.40
2017,05,30,05,32,11.40
2017,05,30,05,33,11.40
2017,05,30,05,34,11.40
2017,05,30,05,35,11.40
2017,05,30,05,36,11.40
2017,05,30,05,37,11.40
2017,05,30,05,38,11.40
2017,05,30,05,39,11.40
2017,05,30,05,40,11.30
2017,05,30,05,41,11.30
2017,05,30,05,42,11.30
2017,05,30,05,43,11.30
2017,05,30,05,44,11.30
2017,05,30,05,45,11.30
2017,05,30,05,46,11.30
2017,05,30,05,47,11.30
2017,05,30,05,48,11.30
2017,05,30,05,49,11.30
2017,05,30,05,50,11.30
2017,05,30,05,51,11.30
2017,05,30,05,52,11.20
2017,05,30,05,53,11.30
2017,05,30,05,54,11.20
2017,05,30,05,55,11.20
2017,05,30,05,56,11.20
2017,05,30,05,57,11.20
2017,05,30,05,58,11.20
2017,05,30,05,59,11.20
2017,05,30,06,00,11.30
2017,05,30,06,01,11.30
2017,05,30,06,02,11.30
2017,05,30,06,03,11.30
2017,05,30,06,04,11.30
2017,05,30,06,05,11.30
2017,05,30,06,06,11.30
2017,05,30,06,07,11.40
2017,05,30,06,08,11.40
2017,05,30,06,09,11.40
2017,05,30,06,10,11.40
2017,05,30,06,11,11.40
2017,05,30,06,12,11.40
2017,05,30,06,13,11.40
2017,05,30,06,14,11.40
2017,05,30,06,15,11.40
2017,05,30,06,16,11.40
2017,05,30,06,17,11.40
2017,05,30,06,18,11.40
2017,05,30,06,19,11.50
2017,05,30,06,20,11.50
2017,05,30,06,21,11.50
2017,05,30,06,22,11.60
2017,05,30,06,23,11.60
2017,05,30,06,24,11.60
2017,05,30,06,25,11.60
2017,05,30,06,26,11.60
2017,05,30,06,27,11.60
2017,05,30,06,28,11.60
2017,05,30,06,29,11.70
2017,05,30,06,30,11.70
2017,05,30,06,31,11.70
2017,05,30,06,32,11.70
2017,05,30,06,33,11.70
2017,05,30,06,34,11.70
2017,05,30,06,35,11.80
2017,05,30,06,36,11.80
2017,05,30,06,37,11.80
2017,05,30,06,38,11.80
2017,05,30,06,39,11.90
2017,05,30,06,40,11.90
2017,05,30,06,41,11.90
2017,05,30,06,42,11.90
2017,05,30,06,43,11.90
2017,05,30,06,44,12.00
2017,05,30,06,45,12.00
2017,05,30,06,46,12.00
2017,05,30,06,47,12.00
2017,05,30,06,48,12.00
2017,05,30,06,49,12.10
2017,05,30,06,50,12.10
2017,05,30,06,51,12.20
2017,05,30,06,52,12.20
2017,05,30,06,53,12.20
2017,05,30,06,54,12.30
2017,05,30,06,55,12.30
2017,05,30,06,56,12.30
2017,05,30,06,57,12.30
2017,05,30,06,58,12.40
2017,05,30,06,59,12.40
2017,05,30,07,00,12.40
2017,05,30,07,01,12.40
2017,05,30,07,02,12.40
2017,05,30,07,03,12.50
2017,05,30,07,04,12.50
2017,05,30,07,05,12.60
2017,05,30,07,06,12.60
2017,05,30,07,07,12.60
2017,05,30,07,08,12.60
2017,05,30,07,09,12.70
2017,05,30,07,10,12.70
2017,05,30,07,11,12.80
2017,05,30,07,12,12.80
2017,05,30,07,13,12.80
2017,05,30,07,14,12.80
2017,05,30,07,15,12.90
2017,05,30,07,16,12.90
2017,05,30,07,17,12.90
2017,05,30,07,18,12.90
2017,05,30,07,19,12.90
2017,05,30,07,20,12.90
2017,05,30,07,21,12.90
2017,05,30,07,22,13.00
2017,05,30,07,23,13.00
2017,05,30,07,24,13.00
2017,05,30,07,25,13.00
2017,05,30,07,26,13.10
2017,05,30,07,27,13.00
2017,05,30,07,28,13.10
2017,05,30,07,29,13.10
2017,05,30,07,30,13.10
2017,05,30,07,31,13.10
2017,05,30,07,32,13.10
2017,05,30,07,33,13.10
2017,05,30,07,34,13.20
2017,05,30,07,35,13.20
2017,05,30,07,36,13.20
2017,05,30,07,37,13.20
2017,05,30,07,38,13.30
2017,05,30,07,39,13.30
2017,05,30,07,40,13.30
2017,05,30,07,41,13.30
2017,05,30,07,42,13.30
2017,05,30,07,43,13.30
2017,05,30,07,44,13.30
2017,05,30,07,45,13.30
2017,05,30,07,46,13.30
2017,05,30,07,47,13.20
2017,05,30,07,48,13.20
2017,05,30,07,49,13.20
2017,05,30,07,50,13.20
2017,05,30,07,51,13.20
2017,05,30,07,52,13.20
2017,05,30,07,53,13.20
2017,05,30,07,54,13.20
2017,05,30,07,55,13.30
2017,05,30,07,56,13.30
2017,05,30,07,57,13.30
2017,05,30,07,58,13.40
2017,05,30,07,59,13.40
2017,05,30,08,00,13.40
2017,05,30,08,01,13.40
2017,05,30,08,02,13.50
2017,05,30,08,03,13.50
2017,05,30,08,04,13.50
2017,05,30,08,05,13.50
2017,05,30,08,06,13.50
2017,05,30,08,07,13.60
2017,05,30,08,08,13.60
2017,05,30,08,09,13.60
2017,05,30,08,10,13.60
2017,05,30,08,11,13.60
2017,05,30,08,12,13.60
2017,05,30,08,13,13.70
2017,05,30,08,14,13.70
2017,05,30,08,15,13.70
2017,05,30,08,16,13.70
2017,05,30,08,17,13.70
2017,05,30,08,18,13.70
2017,05,30,08,19,13.70
2017,05,30,08,20,13.70
2017,05,30,08,21,13.70
2017,05,30,08,22,13.70
2017,05,30,08,23,13.70
2017,05,30,08,24,13.70
2017,05,30,08,25,13.70
2017,05,30,08,26,13.80
2017,05,30,08,27,13.80
2017,05,30,08,28,13.80
2017,05,30,08,29,13.80
2017,05,30,08,30,13.80
2017,05,30,08,31,13.90
2017,05,30,08,32,13.90
2017,05,30,08,33,14.00
2017,05,30,08,34,14.00
2017,05,30,08,35,14.10
2017,05,30,08,36,14.10
2017,05,30,08,37,14.10
2017,05,30,08,38,14.10
2017,05,30,08,39,14.10
2017,05,30,08,40,14.10
2017,05,30,08,41,14.10
2017,05,30,08,42,14.20
2017,05,30,08,43,14.20
2017,05,30,08,44,14.20
2017,05,30,08,45,14.20
2017,05,30,08,46,14.20
2017,05,30,08,47,14.20
2017,05,30,08,48,14.20
2017,05,30,08,49,14.20
2017,05,30,08,50,14.20
2017,05,30,08,51,14.20
2017,05,30,08,52,14.20
2017,05,30,08,53,14.20
2017,05,30,08,54,14.20
2017,05,30,08,55,14.20
2017,05,30,08,56,14.20
2017,05,30,08,57,14.20
2017,05,30,08,58,14.20
2017,05,30,08,59,14.20
2017,05,30,09,00,14.20
2017,05,30,09,01,14.20
2017,05,30,09,02,14.20
2017,05,30,09,03,14.20
2017,05,30,09,04,14.20
2017,05,30,09,05,14.30
2017,05,30,09,06,14.30
2017,05,30,09,07,14.30
2017,05,30,09,08,14.30
2017,05,30,09,09,14.30
2017,05,30,09,10,14.30
2017,05,30,09,11,14.30
2017,05,30,09,12,14.30
2017,05,30,09,13,14.30
2017,05,30,09,14,14.30
2017,05,30,09,15,14.30
2017,05,30,09,16,14.40
2017,05,30,09,17,14.40
2017,05,30,09,18,14.40
2017,05,30,09,19,14.40
2017,05,30,09,20,14.40
2017,05,30,09,21,14.40
2017,05,30,09,22,14.40
2017,05,30,09,23,14.50
2017,05,30,09,24,14.50
2017,05,30,09,25,14.50
2017,05,30,09,26,14.60
2017,05,30,09,27,14.60
2017,05,30,09,28,14.70
2017,05,30,09,29,14.80
2017,05,30,09,30,14.80
2017,05,30,09,31,14.80
2017,05,30,09,32,14.90
2017,05,30,09,33,14.90
2017,05,30,09,34,14.90
2017,05,30,09,35,15.00
2017,05,30,09,36,15.00
2017,05,30,09,37,15.00
2017,05,30,09,38,15.10
2017,05,30,09,39,15.10
2017,05,30,09,40,15.20
2017,05,30,09,41,15.20
2017,05,30,09,42,15.20
2017,05,30,09,43,15.20
2017,05,30,09,44,15.20
2017,05,30,09,45,15.20
2017,05,30,09,46,15.30
2017,05,30,09,47,15.30
2017,05,30,09,48,15.40
2017,05,30,09,49,15.50
2017,05,30,09,50,15.50
2017,05,30,09,51,15.50
2017,05,30,09,52,15.50
2017,05,30,09,53,15.50
2017,05,30,09,54,15.50
2017,05,30,09,55,15.50
2017,05,30,09,56,15.40
2017,05,30,09,57,15.40
2017,05,30,09,58,15.40
2017,05,30,09,59,15.40
2017,05,30,10,00,15.30
2017,05,30,10,01,15.30
2017,05,30,10,02,15.30
2017,05,30,10,03,15.30
2017,05,30,10,04,15.20
2017,05,30,10,05,15.20
2017,05,30,10,06,15.10
2017,05,30,10,07,15.10
2017,05,30,10,08,15.10
2017,05,30,10,09,15.10
2017,05,30,10,10,15.10
2017,05,30,10,11,15.10
2017,05,30,10,12,15.10
2017,05,30,10,13,15.10
2017,05,30,10,14,15.10
2017,05,30,10,15,15.10
2017,05,30,10,16,15.10
2017,05,30,10,17,15.10
2017,05,30,10,18,15.10
2017,05,30,10,19,15.10
2017,05,30,10,20,15.10
2017,05,30,10,21,15.10
2017,05,30,10,22,15.10
2017,05,30,10,23,15.10
2017,05,30,10,24,15.10
2017,05,30,10,25,15.10
2017,05,30,10,26,15.10
2017,05,30,10,27,15.20
2017,05,30,10,28,15.20
2017,05,30,10,29,15.20
2017,05,30,10,30,15.20
2017,05,30,10,31,15.30
2017,05,30,10,32,15.30
2017,05,30,10,33,15.40
2017,05,30,10,34,15.40
2017,05,30,10,35,15.40
2017,05,30,10,36,15.40
2017,05,30,10,37,15.30
2017,05,30,10,38,15.30
2017,05,30,10,39,15.30
2017,05,30,10,40,15.30
2017,05,30,10,41,15.40
2017,05,30,10,42,15.30
2017,05,30,10,43,15.30
2017,05,30,10,44,15.30
2017,05,30,10,45,15.30
2017,05,30,10,46,15.30
2017,05,30,10,47,15.30
2017,05,30,10,48,15.30
2017,05,30,10,49,15.30
2017,05,30,10,50,15.30
2017,05,30,10,51,15.30
2017,05,30,10,52,15.40
2017,05,30,10,53,15.40
2017,05,30,10,54,15.50
2017,05,30,10,55,15.50
2017,05,30,10,56,15.60
2017,05,30,10,57,15.60
2017,05,30,10,58,15.60
2017,05,30,10,59,15.60
2017,05,30,11,00,15.60
2017,05,30,11,01,15.50
2017,05,30,11,02,15.50
2017,05,30,11,03,15.40
2017,05,30,11,04,15.30
2017,05,30,11,05,15.30
2017,05,30,11,06,15.20
2017,05,30,11,07,15.20
2017,05,30,11,08,15.20
2017,05,30,11,09,15.20
2017,05,30,11,10,15.20
2017,05,30,11,11,15.30
2017,05,30,11,12,15.30
2017,05,30,11,13,15.30
2017,05,30,11,14,15.30
2017,05,30,11,15,15.30
2017,05,30,11,16,15.30
2017,05,30,11,17,15.40
2017,05,30,11,18,15.40
2017,05,30,11,19,15.40
2017,05,30,11,20,15.50
2017,05,30,11,21,15.50
2017,05,30,11,22,15.60
2017,05,30,11,23,15.60
2017,05,30,11,24,15.60
2017,05,30,11,25,15.60
2017,05,30,11,26,15.60
2017,05,30,11,27,15.50
2017,05,30,11,28,15.50
2017,05,30,11,29,15.40
2017,05,30,11,30,15.40
2017,05,30,11,31,15.30
2017,05,30,11,32,15.30
2017,05,30,11,33,15.30
2017,05,30,11,34,15.30
2017,05,30,11,35,15.30
2017,05,30,11,36,15.30
2017,05,30,11,37,15.30
2017,05,30,11,38,15.30
2017,05,30,11,39,15.30
2017,05,30,11,40,15.30
2017,05,30,11,41,15.30
2017,05,30,11,42,15.30
2017,05,30,11,43,15.30
2017,05,30,11,44,15.30
2017,05,30,11,45,15.30
2017,05,30,11,46,15.30
2017,05,30,11,47,15.30
2017,05,30,11,48,15.30
2017,05,30,11,49,15.30
2017,05,30,11,50,15.40
2017,05,30,11,51,15.40
2017,05,30,11,52,15.40
2017,05,30,11,53,15.50
2017,05,30,11,54,15.50
2017,05,30,11,55,15.60
2017,05,30,11,56,15.60
2017,05,30,11,57,15.70
2017,05,30,11,58,15.70
2017,05,30,11,59,15.70
2017,05,30,12,00,15.80
2017,05,30,12,01,15.80
2017,05,30,12,02,15.80
2017,05,30,12,03,15.80
2017,05,30,12,04,15.80
2017,05,30,12,05,15.80
2017,05,30,12,06,15.80
2017,05,30,12,07,15.80
2017,05,30,12,08,15.70
2017,05,30,12,09,15.70
2017,05,30,12,10,15.70
2017,05,30,12,11,15.60
2017,05,30,12,12,15.60
2017,05,30,12,13,15.60
2017,05,30,12,14,15.60
2017,05,30,12,15,15.60
2017,05,30,12,16,15.60
2017,05,30,12,17,15.60
2017,05,30,12,18,15.60
2017,05,30,12,19,15.50
2017,05,30,12,20,15.50
2017,05,30,12,21,15.50
2017,05,30,12,22,15.50
2017,05,30,12,23,15.50
2017,05,30,12,24,15.50
2017,05,30,12,25,15.50
2017,05,30,12,26,15.50
2017,05,30,12,27,15.50
2017,05,30,12,28,15.50
2017,05,30,12,29,15.50
2017,05,30,12,30,15.50
2017,05,30,12,31,15.50
2017,05,30,12,32,15.50
2017,05,30,12,33,15.50
2017,05,30,12,34,15.40
2017,05,30,12,35,15.40
2017,05,30,12,36,15.40
2017,05,30,12,37,15.30
2017,05,30,12,38,15.30
2017,05,30,12,39,15.30
2017,05,30,12,40,15.30
2017,05,30,12,41,15.30
2017,05,30,12,42,15.30
2017,05,30,12,43,15.30
2017,05,30,12,44,15.30
2017,05,30,12,45,15.30
2017,05,30,12,46,15.30
2017,05,30,12,47,15.30
2017,05,30,12,48,15.30
2017,05,30,12,49,15.40
2017,05,30,12,50,15.30
2017,05,30,12,51,15.40
2017,05,30,12,52,15.30
2017,05,30,12,53,15.30
2017,05,30,12,54,15.30
2017,05,30,12,55,15.30
2017,05,30,12,56,15.20
2017,05,30,12,57,15.20
2017,05,30,12,58,15.20
2017,05,30,12,59,15.20
2017,05,30,13,00,15.20
2017,05,30,13,01,15.20
2017,05,30,13,02,15.10
2017,05,30,13,03,15.10
2017,05,30,13,04,15.10
2017,05,30,13,05,15.10
2017,05,30,13,06,15.10
2017,05,30,13,07,15.10
2017,05,30,13,08,15.10
2017,05,30,13,09,15.10
2017,05,30,13,10,15.10
2017,05,30,13,11,15.20
2017,05,30,13,12,15.20
2017,05,30,13,13,15.20
2017,05,30,13,14,15.20
2017,05,30,13,15,15.30
2017,05,30,13,16,15.30
2017,05,30,13,17,15.30
2017,05,30,13,18,15.40
2017,05,30,13,19,15.50
2017,05,30,13,20,15.60
2017,05,30,13,21,15.60
2017,05,30,13,22,15.70
2017,05,30,13,23,15.70
2017,05,30,13,24,15.80
2017,05,30,13,25,15.80
2017,05,30,13,26,15.80
2017,05,30,13,27,15.90
2017,05,30,13,28,15.90
2017,05,30,13,29,16.00
2017,05,30,13,30,16.00
2017,05,30,13,31,16.10
2017,05,30,13,32,16.10
2017,05,30,13,33,16.10
2017,05,30,13,34,16.10
2017,05,30,13,35,16.10
2017,05,30,13,36,16.10
2017,05,30,13,37,16.20
2017,05,30,13,38,16.20
2017,05,30,13,39,16.20
2017,05,30,13,40,16.20
2017,05,30,13,41,16.20
2017,05,30,13,42,16.20
2017,05,30,13,43,16.20
2017,05,30,13,44,16.20
2017,05,30,13,45,16.20
2017,05,30,13,46,16.20
2017,05,30,13,47,16.10
2017,05,30,13,48,16.10
2017,05,30,13,49,16.10
2017,05,30,13,50,16.10
2017,05,30,13,51,16.10
2017,05,30,13,52,16.20
2017,05,30,13,53,16.20
2017,05,30,13,54,16.10
2017,05,30,13,55,16.10
2017,05,30,13,56,16.00
2017,05,30,13,57,16.00
2017,05,30,13,58,16.00
2017,05,30,13,59,15.90
2017,05,30,14,00,15.90
2017,05,30,14,01,15.90
2017,05,30,14,02,15.80
2017,05,30,14,03,15.80
2017,05,30,14,04,15.80
2017,05,30,14,05,15.70
2017,05,30,14,06,15.70
2017,05,30,14,07,15.70
2017,05,30,14,08,15.70
2017,05,30,14,09,15.70
2017,05,30,14,10,15.70
2017,05,30,14,11,15.80
2017,05,30,14,12,15.80
2017,05,30,14,13,15.80
2017,05,30,14,14,15.90
2017,05,30,14,15,15.90
2017,05,30,14,16,15.90
2017,05,30,14,17,16.00
2017,05,30,14,18,16.00
2017,05,30,14,19,16.00
2017,05,30,14,20,16.00
2017,05,30,14,21,16.10
2017,05,30,14,22,16.10
2017,05,30,14,23,16.10
2017,05,30,14,24,16.10
2017,05,30,14,25,16.10
2017,05,30,14,26,16.10
2017,05,30,14,27,16.10
2017,05,30,14,28,16.00
2017,05,30,14,29,16.00
2017,05,30,14,30,16.00
2017,05,30,14,31,15.90
2017,05,30,14,32,15.90
2017,05,30,14,33,15.80
2017,05,30,14,34,15.80
2017,05,30,14,35,15.80
2017,05,30,14,36,15.80
2017,05,30,14,37,15.80
2017,05,30,14,38,15.80
2017,05,30,14,39,15.80
2017,05,30,14,40,15.80
2017,05,30,14,41,15.80
2017,05,30,14,42,15.80
2017,05,30,14,43,15.80
2017,05,30,14,44,15.80
2017,05,30,14,45,15.80
2017,05,30,14,46,15.80
2017,05,30,14,47,15.80
2017,05,30,14,48,15.80
2017,05,30,14,49,15.90
2017,05,30,14,50,15.90
2017,05,30,14,51,15.90
2017,05,30,14,52,16.00
2017,05,30,14,53,16.00
2017,05,30,14,54,16.10
2017,05,30,14,55,16.10
2017,05,30,14,56,16.10
2017,05,30,14,57,16.10
2017,05,30,14,58,16.20
2017,05,30,14,59,16.20
2017,05,30,15,00,16.30
2017,05,30,15,01,16.30
2017,05,30,15,02,16.40
2017,05,30,15,03,16.50
2017,05,30,15,04,16.50
2017,05,30,15,05,16.60
2017,05,30,15,06,16.60
2017,05,30,15,07,16.60
2017,05,30,15,08,16.60
2017,05,30,15,09,16.60
2017,05,30,15,10,16.60
2017,05,30,15,11,16.60
2017,05,30,15,12,16.70
2017,05,30,15,13,16.70
2017,05,30,15,14,16.70
2017,05,30,15,15,16.70
2017,05,30,15,16,16.80
2017,05,30,15,17,16.80
2017,05,30,15,18,16.80
2017,05,30,15,19,16.80
2017,05,30,15,20,16.80
2017,05,30,15,21,16.80
2017,05,30,15,22,16.70
2017,05,30,15,23,16.70
2017,05,30,15,24,16.70
2017,05,30,15,25,16.70
2017,05,30,15,26,16.70
2017,05,30,15,27,16.80
2017,05,30,15,28,16.80
2017,05,30,15,29,16.80
2017,05,30,15,30,16.80
2017,05,30,15,31,16.70
2017,05,30,15,32,16.70
2017,05,30,15,33,16.60
2017,05,30,15,34,16.70
2017,05,30,15,35,16.70
2017,05,30,15,36,16.70
2017,05,30,15,37,16.70
2017,05,30,15,38,16.70
2017,05,30,15,39,16.70
2017,05,30,15,40,16.70
2017,05,30,15,41,16.70
2017,05,30,15,42,16.70
2017,05,30,15,43,16.60
2017,05,30,15,44,16.60
2017,05,30,15,45,16.60
2017,05,30,15,46,16.50
2017,05,30,15,47,16.50
2017,05,30,15,48,16.50
2017,05,30,15,49,16.50
2017,05,30,15,50,16.50
2017,05,30,15,51,16.40
2017,05,30,15,52,16.40
2017,05,30,15,53,16.40
2017,05,30,15,54,16.20
2017,05,30,15,55,16.10
2017,05,30,15,56,16.00
2017,05,30,15,57,15.90
2017,05,30,15,58,15.90
2017,05,30,15,59,15.80
2017,05,30,16,00,15.70
2017,05,30,16,01,15.70
2017,05,30,16,02,15.60
2017,05,30,16,03,15.60
2017,05,30,16,04,15.50
2017,05,30,16,05,15.50
2017,05,30,16,06,15.50
2017,05,30,16,07,15.50
2017,05,30,16,08,15.60
2017,05,30,16,09,15.60
2017,05,30,16,10,15.60
2017,05,30,16,11,15.60
2017,05,30,16,12,15.70
2017,05,30,16,13,15.70
2017,05,30,16,14,15.80
2017,05,30,16,15,15.80
2017,05,30,16,16,15.90
2017,05,30,16,17,16.00
2017,05,30,16,18,16.00
2017,05,30,16,19,16.10
2017,05,30,16,20,16.10
2017,05,30,16,21,16.10
2017,05,30,16,22,16.10
2017,05,30,16,23,16.10
2017,05,30,16,24,16.10
2017,05,30,16,25,16.10
2017,05,30,16,26,16.20
2017,05,30,16,27,16.20
2017,05,30,16,28,16.30
2017,05,30,16,29,16.30
2017,05,30,16,30,16.40
2017,05,30,16,31,16.50
2017,05,30,16,32,16.50
2017,05,30,16,33,16.60
2017,05,30,16,34,16.60
2017,05,30,16,35,16.70
2017,05,30,16,36,16.80
2017,05,30,16,37,16.80
2017,05,30,16,38,16.90
2017,05,30,16,39,17.00
2017,05,30,16,40,17.00
2017,05,30,16,41,17.10
2017,05,30,16,42,17.10
2017,05,30,16,43,17.10
2017,05,30,16,44,17.10
2017,05,30,16,45,17.20
2017,05,30,16,46,17.20
2017,05,30,16,47,17.30
2017,05,30,16,48,17.30
2017,05,30,16,49,17.40
2017,05,30,16,50,17.50
2017,05,30,16,51,17.50
2017,05,30,16,52,17.60
2017,05,30,16,53,17.70
2017,05,30,16,54,17.80
2017,05,30,16,55,17.80
2017,05,30,16,56,17.90
2017,05,30,16,57,18.00
2017,05,30,16,58,18.10
2017,05,30,16,59,18.10
2017,05,30,17,00,18.20
2017,05,30,17,01,18.20
2017,05,30,17,02,18.30
2017,05,30,17,03,18.30
2017,05,30,17,04,18.30
2017,05,30,17,05,18.30
2017,05,30,17,06,18.30
2017,05,30,17,07,18.40
2017,05,30,17,08,18.50
2017,05,30,17,09,18.50
2017,05,30,17,10,18.60
2017,05,30,17,11,18.70
2017,05,30,17,12,18.70
2017,05,30,17,13,18.70
2017,05,30,17,14,18.70
2017,05,30,17,15,18.70
2017,05,30,17,16,18.70
2017,05,30,17,17,18.70
2017,05,30,17,18,18.60
2017,05,30,17,19,18.60